Location: Montbazon
(47.2835°N, 0.6999°E)
Time: 17:33:17
(UTC+00:00)

Cosmos 2237 Rocket - Pass Details

Date: 08 November 2025
Orbit: 835 x 847 km, 71.0° (Epoch: 10 December)

Event Time Altitude Azimuth Distance (km) Brightness Sun altitude
Rises 05:14:36 0° 199° (SSW) 3,390 5.2 -16.6°
Reaches altitude 10° 05:17:02 10° 198° (SSW) 2,458 4.5 -16.1°
Maximum altitude 05:22:39 75° 114° (ESE) 876 2.4 -15.2°
Drops below altitude 10° 05:28:19 10° 30° (NNE) 2,467 4.9 -14.3°
Sets 05:30:46 0° 29° (NNE) 3,404 5.6 -13.8°
